Location: Columbia
(38.9520°N, 92.3340°W)
Time: 22:17:27
(UTC-05:00)

Iridium 52 - Visible Passes

Search period start: 30 March 2015 00:00
Search period end: 09 April 2015 00:00
Orbit: 776 x 779 km, 86.4° (Epoch: 30 March)

Date Brightness Start Highest point End Pass type
(mag) Time Alt. Az. Time Alt. Az. Time Alt. Az.
30 Mar 6.9 21:53:05 10° N 21:56:29 38° NNE 21:56:29 38° NNE visible
30 Mar 8.7 23:35:27 10° NW 23:36:59 14° WNW 23:36:59 14° WNW visible
31 Mar 7.1 21:19:59 10° NNE 21:23:27 28° ENE 21:23:27 28° ENE visible
31 Mar 8.0 23:00:46 10° NNW 23:03:57 25° WNW 23:03:57 25° WNW visible
01 Apr 7.6 20:47:30 10° NE 20:50:26 16° ENE 20:50:26 16° ENE visible
01 Apr 6.9 22:26:45 10° NNW 22:30:56 47° NW 22:30:56 47° NW visible
02 Apr 6.0 21:53:06 10° N 21:57:56 75° NNE 21:57:56 75° NNE visible
02 Apr 8.9 23:37:57 10° WNW 23:38:26 10° WNW 23:38:26 10° WNW visible
03 Apr 6.3 21:19:47 10° N 21:24:44 44° E 21:24:58 43° E visible
03 Apr 8.2 23:01:25 10° NW 23:05:11 20° W 23:05:29 19° W visible
04 Apr 7.1 20:46:51 10° NNE 20:50:58 24° ENE 20:52:02 23° E visible
04 Apr 7.3 22:27:04 10° NNW 22:31:50 36° W 22:32:33 34° WSW visible
05 Apr 7.8 20:14:52 10° NE 20:17:01 13° ENE 20:19:09 11° E visible
05 Apr 6.2 21:53:13 10° N 21:58:25 68° W 21:59:39 50° SSW visible
06 Apr 6.0 21:19:42 10° N 21:24:53 65° E 21:26:48 38° SSE visible
06 Apr 8.7 23:02:32 10° NW 23:05:06 13° W 23:07:18 10° WSW visible
07 Apr 6.7 20:46:30 10° NNE 20:51:13 34° E 20:53:58 21° SE visible
07 Apr 8.0 22:27:33 10° NNW 22:31:48 25° W 22:34:29 16° WSW visible
08 Apr 7.4 20:13:50 10° NNE 20:17:23 19° ENE 20:21:06 10° ESE visible
08 Apr 6.9 21:53:27 10° NNW 21:58:26 46° W 22:01:43 20° SSW visible
